Airfield :
LOGIN :

Register | Disclaimer

   EN    FR    IT 

 










Legend :    VFR   Marginal VFR   IFR   Intensive IFR   Very Intensive IFR
Visi :
Ceiling :
>= 8 km
>= 3000ft
5 to 8 km
1000 to 3000 ft
1500m to 5 km
500 to 1000 ft
800 to 1500m
200 to 500 ft
< 800m
< 200 ft
Symbols :   Thunderstorms  Fog  Heavy snow  Heavy precipitations  Wind > 20 kt
SIGMETs :     Misc.  Thunderstorms  Icing  Turbulence  Mountain Waves  Volcanic Ashes






- Airport Elevation : 16 ft
- IATA code : AAE


DABB - Annaba-Rabah Bitat

CURRENT METAR :
  • 071600Z 01017KT 9999 FEW020 28/17 Q1016

EXPIRED METARs :
  • 071500Z 01016KT 9999 FEW023 29/19 Q1016
  • 071400Z 02017KT 9999 FEW023 29/19 Q1016

TAF TAF DABB
Valid from the 07 at 12:00 until the 08 at 12:00 UTC


071100Z 0712/0812 04012KT CAVOK
BECMG 0718/0721 12006KT
PROB30
TEMPO 0803/0807 3000 BR



MET'MAP, your aeronautical weather chart ! - Copyright ORBIFLY December 2007 - Disclaimer

ORBIFLY MET'MAP TEAM :

Programming & Development : Alexandra Zaïnal
Concept & original design : Baudouin d'Aumeries
Assistance for programming : Marc-Olivier Méhu
Technical & hardware support : Manuel Goepfert

Contact : metmap@orbifly.com




SOURCES & CREDITS :

   NOAA